Flag for Turkey Weather past 2 weeks in Samsun, Turkey

Now
61 °F

Broken clouds.


Feels Like: 61 °F
Forecast: 43 / 57 °F
Wind: 3 mph from East

Location: Samsun / Carsamba

Current Time: Apr 1, 2015 at 5:16:39 PM

Latest Report: Apr 1, 2015 at 4:50 PM


Visibility: N/A

Pressure: 29.80 "Hg

Humidity: 63%

Dew point: 48 °F

Location of SamsunLocation

Historic Weather in Samsun — Graph

°F

Samsun temperature yesterday

Maximum temperature yesterday: 68 °F (at 12:50 PM)
Minimum temperature yesterday: 41 °F (at 4:50 AM)
Average temperature yesterday: 53 °F

Past Weeks' High & Low Weather Summary

 TemperatureHumidityPressure
High79 °F (Mar 27, 2:50 PM)100% (Mar 18, 2:50 AM)30.36 "Hg (Mar 18, 2:50 AM)
Low30 °F (Mar 18, 2:50 AM)22% (Mar 27, 9:50 AM)29.59 "Hg (Mar 28, 1:50 PM)
Average50 °F77%30.01 "Hg
* Reported Mar 17 2:50 PM — Apr 1 3:50 PM, Samsun, Weather by CustomWeather, © 2015

Note: Actual official high and low records may vary slightly from our data, if they occured in-between our weather recording intervals... More about our weather records

Advertising

Samsun weather history for previous 24 hours

 ConditionsComfort  
Time TempWeatherWind HumidityBarometerVisibility
3:50 PM
Wed, Apr 1
61 °FBroken clouds.6 mph59%29.80 "HgN/A
2:50 PM61 °FBroken clouds.6 mph59%29.80 "HgN/A
1:50 PM63 °FBroken clouds.8 mph59%29.80 "HgN/A
12:50 PM63 °FBroken clouds.9 mph64%29.80 "HgN/A
11:50 AM66 °FBroken clouds.5 mph52%29.80 "HgN/A
10:50 AM64 °FPartly sunny.7 mph56%29.80 "HgN/A
9:50 AM61 °FScattered clouds.9 mph68%29.80 "HgN/A
8:50 AM57 °FPassing clouds.7 mph77%29.80 "HgN/A
7:50 AM54 °FScattered clouds.5 mph88%29.80 "HgN/A
6:50 AM48 °FPassing clouds.5 mph94%29.80 "HgN/A
5:50 AM48 °FPassing clouds.8 mph94%29.80 "HgN/A
4:50 AM50 °FPassing clouds.3 mph94%29.80 "HgN/A
3:50 AM50 °FPassing clouds.5 mph94%29.80 "HgN/A
2:50 AM52 °FSprinkles. Passing clouds.1 mph88%29.83 "HgN/A
1:50 AM52 °FSprinkles. Passing clouds.7 mph88%29.83 "Hg5 mi
12:50 AM52 °FSprinkles. Passing clouds.7 mph88%29.80 "Hg5 mi
11:50 PM
Tue, Mar 31
54 °FSprinkles. Passing clouds.3 mph82%29.80 "Hg4 mi
10:50 PM52 °FPartly cloudy.15 mph82%29.80 "HgN/A
9:50 PM52 °FPartly cloudy.17 mph88%29.77 "HgN/A
8:50 PM54 °FPartly cloudy.18 mph82%29.77 "HgN/A
7:50 PM55 °FBroken clouds.6 mph94%29.74 "HgN/A
6:50 PM57 °FBroken clouds.2 mph88%29.74 "HgN/A
5:50 PM57 °FBroken clouds.No wind88%29.74 "HgN/A
Weather by CustomWeather, © 2015

See weather overviewHow to use our weather pages